[[{"header":{"parameterUnit":"m.s-1","parameterCategory":1,"la1":30.2991,"la2":30.254,"lo1":-89.0895,"lo2":-89.0444,"dy":0.0017,"dx":0.0017,"nx":28,"ny":28,"refTime":"2025-07-25T03:00:00:Z","depth":0,"parameterNumber":2,"parameterNumberName":"U-component_of_WINDS"},"data":[0,0,0,0,0,0,0,0,0,0,0,0,0,0,0,0,0,0,0,0,0,0,0,0,0,0,0,0,0,0,0,0,0,0,0,0,0,0,0,0,0,0,0,0,0,0,0,0,0,0,0,0,0,0,0,0,0,0,-3.0473,-3.0473,0,-3.0454,-3.0454,-3.0454,-3.0423,-3.0423,-3.0422,-3.0421,-3.0402,-3.0402,-3.0402,0,0,0,0,0,0,0,0,0,0,0,0,0,-3.0483,-3.0483,-3.0473,-3.0473,-3.0472,-3.0454,-3.0454,-3.0454,-3.0423,-3.0423,-3.0422,-3.0421,-3.0402,-3.0402,-3.0402,0,0,0,0,0,0,0,0,0,0,0,0,0,-3.0473,-3.0483,-3.0473,-3.0455,-3.0453,-3.0454,-3.0454,-3.0453,-3.0423,-3.0423,-3.0422,-3.0421,-3.0402,-3.0402,-3.0402,-3.0418,0,0,-3.0402,-3.0402,0,0,0,0,0,0,0,0,-3.0473,-3.0472,-3.0458,-3.0456,-3.0454,-3.044,-3.045,-3.0442,-3.0424,-3.0435,-3.0421,-3.042,-3.0415,-3.0414,-3.0412,-3.0417,-3.0416,-3.0402,-3.0402,-3.0402,-3.0402,0,0,0,0,0,0,0,-3.0474,-3.0473,-3.0465,-3.0458,-3.0456,-3.0448,-3.0446,-3.0448,-3.043,-3.0434,-3.0431,-3.043,-3.0414,-3.0412,-3.0412,-3.0416,-3.0402,-3.0402,-3.0402,-3.0402,-3.0434,-3.0435,0,0,0,0,0,0,-3.0477,-3.0474,-3.0466,-3.0465,-3.0462,-3.0449,-3.0446,-3.0445,-3.043,-3.0426,-3.043,-3.0428,-3.0413,-3.0412,-3.0411,-3.0429,-3.0402,-3.0402,-3.0402,-3.0433,-3.0434,-3.0435,0,0,0,0,0,0,-3.0478,-3.0477,-3.0467,-3.0469,-3.0467,-3.0449,-3.0449,-3.0446,-3.0444,-3.0427,-3.0424,-3.0432,-3.0412,-3.0411,-3.0417,-3.0427,-3.0402,-3.0402,-3.0432,-3.0433,-3.0434,-3.0465,0,0,0,0,0,0,-3.0478,-3.0477,-3.0483,-3.0469,-3.0467,-3.0473,-3.045,-3.0446,-3.0444,-3.0441,-3.0428,-3.0425,-3.0411,-3.0417,-3.0417,-3.0427,-3.0402,-3.0431,-3.0432,-3.0434,-3.0463,-3.0467,-3.0471,0,0,0,0,0,-3.0479,-3.0493,-3.0484,-3.0483,-3.0474,-3.0474,-3.0472,-3.0457,-3.0445,-3.0451,-3.044,-3.0425,-3.0427,-3.0418,-3.0417,-3.0428,-3.043,-3.0432,-3.0434,-3.0461,-3.0466,-3.047,0,0,0,0,0,0,-3.0508,-3.049,-3.048,-3.049,-3.0484,-3.0469,-3.0475,-3.0463,-3.0459,-3.0457,-3.0437,-3.0435,-3.0443,-3.0436,-3.0426,-3.0443,-3.0426,-3.0428,-3.0447,-3.0452,-3.0455,-3.0456,-3.0402,0,0,0,0,0,-3.0516,-3.0518,-3.0502,-3.0512,-3.0509,-3.0493,-3.0492,-3.0481,-3.0473,-3.047,-3.046,-3.0453,-3.0452,-3.0452,-3.045,-3.0462,-3.0458,-3.0469,-3.0473,-3.0476,-3.0478,-3.0484,-3.0488,-3.0441,-3.0441,-3.0441,0,0,-3.0532,-3.0523,-3.0524,-3.0518,-3.0511,-3.0513,-3.0491,-3.0494,-3.0495,-3.0471,-3.0475,-3.0468,-3.0459,-3.0468,-3.0471,-3.0463,-3.049,-3.0479,-3.0482,-3.0481,-3.0486,-3.049,-3.0494,-3.0442,-3.0442,-3.0442,0,0,-3.0562,-3.0555,-3.0563,-3.0557,-3.0547,-3.0537,-3.0539,-3.0526,-3.0519,-3.0524,-3.0506,-3.0507,-3.0506,-3.05,-3.0497,-3.0525,-3.0511,-3.0525,-3.0545,-3.0551,-3.0555,-3.0558,-3.0567,-3.0571,-3.0527,-3.0527,-3.0527,0,-3.0583,-3.0585,-3.0568,-3.0572,-3.0569,-3.0548,-3.0556,-3.0551,-3.0541,-3.054,-3.053,-3.0528,-3.0521,-3.0528,-3.0535,-3.0533,-3.0535,-3.0526,-3.0555,-3.0558,-3.0561,-3.057,-3.0573,-3.0529,-3.0528,-3.0528,-3.0528,0,-3.0611,-3.0612,-3.062,-3.0611,-3.0609,-3.0615,-3.0599,-3.06,-3.0589,-3.0579,-3.0584,-3.0574,-3.057,-3.0571,-3.056,-3.0577,-3.0571,-3.0559,-3.0541,-3.0567,-3.0575,-3.0579,-3.0531,-3.053,-3.053,-3.053,0,0,-3.0658,-3.064,-3.0643,-3.0639,-3.0627,-3.0628,-3.0633,-3.0629,-3.0629,-3.0624,-3.0627,-3.0627,-3.0615,-3.0612,-3.06,-3.0605,-3.0627,-3.0592,-3.0591,-3.0598,-3.0644,-3.0653,-3.0657,-3.0619,-3.0619,-3.062,-3.0645,0,-3.0685,-3.0692,-3.0677,-3.0688,-3.0689,-3.0669,-3.0673,-3.0666,-3.0658,-3.0657,-3.0647,-3.0647,-3.0632,-3.063,-3.0634,-3.0624,-3.0636,-3.0622,-3.0621,-3.0621,-3.0623,-3.0662,-3.0671,-3.0695,-3.0648,-3.0648,-3.0649,0,-3.0717,-3.0713,-3.0723,-3.0711,-3.0711,-3.0715,-3.071,-3.071,-3.0702,-3.0695,-3.0691,-3.0678,-3.0682,-3.0666,-3.067,-3.0661,-3.066,-3.0655,-3.0655,-3.0654,-3.0636,-3.066,-3.0703,-3.0706,-3.0654,-3.0653,-3.0653,0,-3.0749,-3.0747,-3.0753,-3.075,-3.0736,-3.0739,-3.0733,-3.0724,-3.0723,-3.0718,-3.0717,-3.0713,-3.0711,-3.0709,-3.0694,-3.0684,-3.0701,-3.0683,-3.0695,-3.0695,-3.0698,-3.0698,-3.074,-3.0699,-3.0699,-3.0699,-3.0699,0,-3.078,-3.0787,-3.0767,-3.077,-3.0778,-3.0761,-3.0769,-3.0761,-3.0754,-3.0755,-3.0738,-3.074,-3.0722,-3.0722,-3.0711,-3.0716,-3.0715,-3.0709,-3.0706,-3.071,-3.0711,-3.0709,-3.0706,-3.07,-3.07,-3.0699,-3.0699,0,-3.0818,-3.0804,-3.0809,-3.0796,-3.0792,-3.0798,-3.0787,-3.0789,-3.078,-3.0782,-3.0781,-3.0766,-3.0765,-3.0751,-3.0747,-3.074,-3.0749,-3.0743,-3.0751,-3.0749,-3.0761,-3.076,-3.0802,-3.0806,-3.0763,-3.0764,-3.0764,0,-3.0838,-3.0843,-3.083,-3.083,-3.0825,-3.0825,-3.0823,-3.0807,-3.0806,-3.0797,-3.0801,-3.0799,-3.0796,-3.0795,-3.0783,-3.078,-3.0773,-3.0788,-3.0773,-3.0777,-3.0773,-3.0772,-3.0772,-3.0792,-3.0792,-3.0793,-3.0793,0,-3.0875,-3.0869,-3.0867,-3.0863,-3.0861,-3.0857,-3.0852,-3.0853,-3.0835,-3.0835,-3.0833,-3.0831,-3.0827,-3.0825,-3.0819,-3.0813,-3.08,-3.0798,-3.08,-3.0804,-3.0809,-3.0806,-3.076,-3.0797,-3.0797,-3.0796,-3.0796,-3.0796,-3.0904,-3.0908,-3.0899,-3.0897,-3.0892,-3.0888,-3.0889,-3.088,-3.0878,-3.0874,-3.0864,-3.0864,-3.0856,-3.0848,-3.0843,-3.0842,-3.0835,-3.0838,-3.0839,-3.084,-3.0842,-3.081,-3.0842,-3.0841,-3.0841,-3.0841,-3.0841,0,-3.094,-3.0934,-3.0933,-3.0926,-3.0925,-3.0913,-3.0906,-3.0906,-3.0906,-3.09,-3.0897,-3.0896,-3.0893,-3.0882,-3.0878,-3.088,-3.0874,-3.088,-3.0879,-3.0878,-3.0849,-3.0847,-3.0885,-3.0885,-3.0885,-3.0884,-3.0884,-3.0884,-3.0959,-3.0964,-3.0956,-3.0958,-3.0951,-3.0951,-3.0948,-3.0944,-3.0939,-3.0938,-3.0936,-3.0928,-3.0919,-3.0915,-3.0912,-3.0909,-3.0908,-3.0915,-3.091,-3.0884,-3.088,-3.0876,-3.0874,-3.0916,-3.0916,-3.0938,-3.0938,-3.0939]},{"header":{"parameterUnit":"m.s-1","parameterCategory":1,"la1":30.2991,"la2":30.254,"lo1":-89.0895,"lo2":-89.0444,"dy":0.0017,"dx":0.0017,"nx":28,"ny":28,"refTime":"2025-07-25T03:00:00:Z","depth":0,"parameterNumber":3,"parameterNumberName":"V-component_of_WINDS"},"data":[0,0,0,0,0,0,0,0,0,0,0,0,0,0,0,0,0,0,0,0,0,0,0,0,0,0,0,0,0,0,0,0,0,0,0,0,0,0,0,0,0,0,0,0,0,0,0,0,0,0,0,0,0,0,0,0,0,0,5.8798,5.8798,0,5.8802,5.8802,5.8802,5.8725,5.8723,5.8721,5.8719,5.8722,5.8724,5.8726,0,0,0,0,0,0,0,0,0,0,0,0,0,5.8723,5.8725,5.8798,5.8798,5.8798,5.8802,5.8802,5.8802,5.8726,5.8723,5.8721,5.8718,5.8721,5.8724,5.8726,0,0,0,0,0,0,0,0,0,0,0,0,0,5.8744,5.8725,5.8798,5.876,5.8757,5.8802,5.8802,5.8802,5.8726,5.8723,5.872,5.8717,5.872,5.8723,5.8726,5.8807,0,0,5.8735,5.8737,0,0,0,0,0,0,0,0,5.8743,5.8747,5.8766,5.8763,5.8759,5.876,5.8777,5.8804,5.8727,5.8738,5.8719,5.8716,5.8737,5.8738,5.8746,5.8807,5.8807,5.8736,5.8738,5.8739,5.874,0,0,0,0,0,0,0,5.8742,5.8746,5.88,5.8766,5.8762,5.8743,5.8743,5.8781,5.8755,5.8737,5.8731,5.8733,5.8735,5.8743,5.8745,5.8807,5.8736,5.8738,5.874,5.8741,5.8935,5.8938,0,0,0,0,0,0,5.8745,5.8746,5.8799,5.88,5.8744,5.8747,5.8747,5.8763,5.8754,5.875,5.8736,5.8729,5.874,5.8742,5.8745,5.8839,5.8739,5.8742,5.8743,5.8932,5.8936,5.894,0,0,0,0,0,0,5.8744,5.8751,5.8799,5.8771,5.8776,5.8752,5.8771,5.8765,5.8773,5.8753,5.8748,5.8749,5.8737,5.8741,5.8792,5.8838,5.8743,5.8746,5.8928,5.8933,5.8938,5.9027,0,0,0,0,0,0,5.8742,5.8751,5.8781,5.8772,5.8778,5.8847,5.8774,5.8767,5.8779,5.8771,5.8765,5.8761,5.8735,5.8788,5.8795,5.884,5.8748,5.8924,5.893,5.8936,5.902,5.9034,5.9047,0,0,0,0,0,5.874,5.8806,5.8783,5.879,5.8815,5.8849,5.8852,5.8822,5.8783,5.8813,5.8801,5.8761,5.8832,5.8794,5.8802,5.8848,5.8921,5.8928,5.8936,5.9013,5.9031,5.9046,0,0,0,0,0,0,5.8819,5.8804,5.8779,5.8844,5.8849,5.8836,5.8873,5.8842,5.8857,5.8849,5.8811,5.881,5.8867,5.8863,5.8821,5.8926,5.8869,5.8879,5.8926,5.8943,5.8956,5.8955,5.8751,0,0,0,0,0,5.8844,5.8874,5.8859,5.8918,5.8922,5.8898,5.8911,5.8888,5.8891,5.8892,5.8883,5.8888,5.8911,5.8927,5.8947,5.902,5.9017,5.9055,5.9069,5.908,5.9088,5.9126,5.9142,5.8964,5.8964,5.8964,0,0,5.8896,5.8892,5.8912,5.8933,5.8934,5.8965,5.8899,5.8935,5.8957,5.8897,5.8945,5.894,5.8942,5.9004,5.9031,5.9002,5.9137,5.909,5.9099,5.91,5.9135,5.9152,5.9167,5.8969,5.8969,5.8968,0,0,5.9006,5.9006,5.9055,5.9058,5.9061,5.9045,5.9057,5.9051,5.9045,5.9092,5.9048,5.9075,5.9116,5.9119,5.9127,5.9241,5.9205,5.9249,5.9319,5.9356,5.937,5.9382,5.9422,5.9437,5.9258,5.9258,5.9258,0,5.907,5.9115,5.9084,5.9123,5.9133,5.9083,5.9132,5.9136,5.9146,5.9154,5.9122,5.9173,5.9171,5.9234,5.9262,5.927,5.9282,5.9248,5.9371,5.9383,5.9394,5.9431,5.9447,5.9263,5.9262,5.9262,5.9261,0,5.9193,5.9226,5.9265,5.9276,5.9292,5.9336,5.9311,5.933,5.9307,5.9294,5.9344,5.934,5.9359,5.9373,5.9349,5.9432,5.9414,5.9378,5.932,5.9416,5.9451,5.9465,5.927,5.9269,5.9267,5.9266,0,0,5.935,5.9346,5.9361,5.9365,5.9367,5.9391,5.9433,5.9453,5.947,5.9479,5.9513,5.955,5.9516,5.9525,5.9502,5.9535,5.9625,5.9494,5.9493,5.9517,5.9716,5.9742,5.976,5.9603,5.9605,5.9607,5.9715,0,5.9456,5.9528,5.9502,5.9575,5.9605,5.9559,5.9595,5.96,5.959,5.9614,5.9602,5.9629,5.9583,5.9588,5.9619,5.9608,5.9664,5.96,5.9633,5.9634,5.9632,5.9778,5.9806,5.9908,5.9729,5.9731,5.9733,0,5.9588,5.9604,5.9681,5.9678,5.9689,5.9723,5.9739,5.9763,5.9767,5.9758,5.9769,5.9739,5.978,5.9725,5.9781,5.9737,5.975,5.9747,5.975,5.975,5.9688,5.9781,5.9939,5.9954,5.9754,5.9752,5.9751,0,5.9694,5.9735,5.9786,5.9792,5.979,5.9814,5.9815,5.9816,5.983,5.9845,5.9853,5.9873,5.9883,5.9898,5.9875,5.9837,5.9934,5.9876,5.9927,5.9927,5.9947,5.9946,6.0108,5.9958,5.9958,5.9958,5.9958,0,5.9814,5.9862,5.9833,5.9864,5.9918,5.9888,5.9942,5.9937,5.9939,5.9969,5.993,5.9958,5.9926,5.9952,5.9934,5.9982,5.9988,5.9981,5.9975,5.9983,5.9984,5.9989,5.9981,5.9962,5.9961,5.996,5.9959,0,5.994,5.9922,5.9975,5.997,5.997,6.0009,6.0004,6.0033,6.0022,6.0059,6.0067,6.0048,6.0076,6.0055,6.0083,6.0071,6.0135,6.012,6.0133,6.0129,6.018,6.0175,6.035,6.0371,6.0209,6.021,6.0212,0,6.0016,6.0053,6.0052,6.007,6.0073,6.0102,6.0116,6.0089,6.0106,6.0115,6.0143,6.0168,6.0186,6.0233,6.0222,6.0243,6.0228,6.0288,6.023,6.0238,6.0227,6.0225,6.0228,6.0299,6.0301,6.0302,6.0303,0,6.0154,6.0145,6.0167,6.0188,6.0207,6.0221,6.0233,6.0249,6.0222,6.0243,6.0272,6.0286,6.0315,6.034,6.0358,6.0357,6.0326,6.0322,6.0335,6.0342,6.0348,6.0345,6.0163,6.0318,6.0316,6.0315,6.0314,6.0314,6.0257,6.0287,6.0292,6.0319,6.0326,6.0338,6.0365,6.0358,6.0382,6.0403,6.0387,6.0421,6.0426,6.0446,6.045,6.0477,6.0452,6.047,6.0474,6.0479,6.0486,6.0346,6.048,6.0479,6.0479,6.0479,6.0478,0,6.0392,6.0394,6.0419,6.0437,6.0459,6.0429,6.0441,6.046,6.0492,6.0499,6.0519,6.0553,6.0577,6.0569,6.0591,6.0614,6.06,6.0621,6.0618,6.0618,6.0507,6.0494,6.0632,6.0632,6.0632,6.0631,6.0631,6.0631,6.0465,6.0515,6.0506,6.0559,6.056,6.0594,6.0604,6.0615,6.0621,6.066,6.0681,6.0677,6.0678,6.07,6.0722,6.0719,6.0728,6.0754,6.0745,6.0641,6.0626,6.0612,6.0599,6.0756,6.0756,6.0854,6.0855,6.0856]}]]